This demonstration page uses our WeatherBlox Daily Observations layout. Learn more.

36.17497, -115.13722

Hourly Observations for March 26, 2018

Temp ( °F °C ) Dew Point ( °F °C ) Humidity (%) Winds ( mph kmh ) Pressure ( in mb ) Visibility ( mi km ) Precip ( " mm )
1:53 am 01:53 Clear 52 11.1 13 -10.6 21 21 NW 22 35 29.93 1014 10 16.0934 0 0
2:53 am 02:53 Mostly Cloudy 51 10.6 12 -11.1 21 21 NNW 26 43 29.93 1014 10 16.0934 0 0
3:53 am 03:53 Partly Cloudy 50 10 13 -10.6 22 22 N 17 28 29.95 1014 10 16.0934 0 0
4:53 am 04:53 Clear 49 9.4 11 -11.7 21 21 N 12 19 29.97 1015 10 16.0934 0 0
5:53 am 05:53 Clear 49 9.4 10 -12.2 21 21 N 18 30 29.98 1015 10 16.0934 0 0
6:53 am 06:53 Sunny 48 8.9 10 -12.2 21 21 N 21 33 30.01 1016 10 16.0934 0 0
7:53 am 07:53 Mostly Cloudy 49 9.4 9 -12.8 20 20 N 20 31 30.04 1017 10 16.0934 0 0
8:53 am 08:53 Sunny 50 10 9 -12.8 19 19 N 23 37 30.06 1018 10 16.0934 0 0
9:53 am 09:53 Sunny 51 10.6 10 -12.2 19 19 NNW 17 28 30.08 1019 10 16.0934 0 0
10:53 am 10:53 Sunny 55 12.8 11 -11.7 17 17 NNW 21 33 30.07 1018 10 16.0934 0 0
11:53 am 11:53 Sunny 58 14.4 10 -12.2 15 15 NNW 20 31 30.05 1018 10 16.0934 0 0
12:53 pm 12:53 Sunny 59 15 8 -13.3 13 13 NNW 18 30 30.04 1017 10 16.0934 0 0
1:53 pm 13:53 Sunny 61 16.1 6 -14.4 11 11 NNW 17 28 30.02 1017 10 16.0934 0 0
2:53 pm 14:53 Sunny 63 17.2 4 -15.6 9 9 NNW 16 26 30 1016 10 16.0934 0 0
3:53 pm 15:53 Sunny 63 17.2 5 -15 10 10 NW 7 11 29.99 1016 10 16.0934 0 0
4:49 pm 16:49 Sunny 63 17 7 -14 11 11 NE 13 20 29.88 1012 10 16.0934 0 0
4:53 pm 16:53 Sunny 63 17.2 6 -14.4 10 10 E 14 22 29.98 1015 10 16.0934 0 0
5:53 pm 17:53 Mostly Sunny 63 17.2 6 -14.4 10 10 NE 21 33 29.99 1016 10 16.0934 0 0
6:53 pm 18:53 Sunny 61 16.1 5 -15 10 10 NE 17 28 30.01 1016 10 16.0934 0 0
7:53 pm 19:53 Clear 60 15.6 6 -14.4 11 11 NE 17 28 30.03 1017 10 16.0934 0 0
8:53 pm 20:53 Clear 59 15 3 -16.1 10 10 NNE 15 24 30.06 1018 10 16.0934 0 0
9:53 pm 21:53 Clear 57 13.9 6 -14.4 13 13 NE 13 20 30.08 1019 10 16.0934 0 0
10:53 pm 22:53 Clear 56 13.3 6 -14.4 13 13 NE 21 33 30.08 1019 10 16.0934 0 0
11:53 pm 23:53 Clear 55 12.8 7 -13.9 14 14 NE 13 20 30.1 1019 10 16.0934 0 0

Powered by AerisWeather